Regional Weather Roundup
Issued by NWS

Home | Current Version | Previous Version | Text Only | Print | Product List | Glossary On
Versions: 1 2 3 4 5 6 7 8 9 10 11 12 13 14 15 16 17 18 19 20 21 22 23 24 25 26 27 28 29 30 31 32 33 34 35 36 37 38 39 40 41 42 43 44 45 46 47 48 49 50
000
ASPQ40 PGUM 010312
RWRPQ
WEATHER ROUNDUP FOR THE MARIANAS AND MICRONESIA
NATIONAL WEATHER SERVICE TIYAN GU
100 PM CHST FRI AUG 01 2014

GUZ001>004-010400-
MARIANA ISLANDS-

CITY           SKY/WX    TMP DP  RH WIND       PRES   REMARKS
GUAM AIRPORT   MOSUNNY   84  79  84 SE9       29.84F HX  96
ANDERSEN AFB   PTSUNNY   84  77  79 S12       29.84F HX  94
ROTA AIRPORT   PTSUNNY   82  77  83 S9        29.85F HX  91
TINIAN AP      PTSUNNY   86  81  84 SE5       29.82F HX 102
SAIPAN AP      MOSUNNY   88  77  70 SE9       29.84F HX 100

$$

PMZ161-010400-
REPUBLIC OF PALAU-

CITY           SKY/WX    TMP DP  RH WIND       PRES   REMARKS
KOROR AP       CLOUDY    86  82  89 SW12        N/A  HX 105
KOROR WSO      CLOUDY    88  75  66 SW15      29.83F HX  97

$$

PMZ171>174-010400-
FEDERATED STATES OF MICRONESIA-

CITY           SKY/WX    TMP DP  RH WIND       PRES   REMARKS
YAP AIRPORT    CLOUDY    84  79  84 SW12      29.81S HX  96
CHUUK AP       CLOUDY    84  77  79 VRB6      29.80F HX  94
POHNPEI AP     LGT RAIN  84  79  84 SW6       29.78F HX  96
POHNPEI WSO    LGT RAIN  81  77  89 S6        29.83F
KOSRAE AP      CLOUDY    84  75  74 S8        29.80F HX  92

$$

PMZ181-010400-
REPUBLIC OF THE MARSHALL ISLANDS-

CITY           SKY/WX    TMP DP  RH WIND       PRES   REMARKS
KWAJALEIN AP   SUNNY     88  72  58 S6        29.82F HX  94
MAJURO AP      MOSUNNY   86  77  74 SE7       29.79  HX  97
MAJURO WSO     MOSUNNY   86  77  74 SE7       29.80F HX  97

$$



USA.gov is the U.S. government's official web portal to all federal, state and local government web resources and services.